Weather in Chet-Kontorka

Russia / Tomsk District     57°03′38″N   88°07′07″E
temp.,
°C
wind,
m/s
gust,
m/s
humid.,
%
clouds,
%
prec.,
mm/h
press.,
hPa
HPBL,
m
8 august, mon
mon801:00+14ene228146 0.0 101015
04:00+13e228015 0.0 101020
07:00+14ene2578100 0.0 1010128
10:00+21e3455100 0.0 1011560
13:00+23e2347100 0.0 10111271
16:00+23ene2350100 0.0 10111267
19:00+20ne1269100 0.0 101181
22:00+16nne258697 0.4 101290
9 august, tue
tue901:00+15ne2595100 0.8 1012115
04:00+14ene259678 0.0 1012117
07:00+15ene269430 0.0 1013157
10:00+21ene35605 0.0 1012538
13:00+25ene34385 0.0 10122142
16:00+23ne2549100 0.0 1011388
19:00+21ne276092 0.0 1011325
22:00+16ne227239 0.0 101122
10 august, wed
wed1001:00+17nne227191 0.0 101146
04:00+13n228481 0.0 101112
07:00+15n137949 0.0 101196
10:00+21nnw235354 0.0 1011597
13:00+24nnw334612 0.0 10101424
16:00+25nnw3346100 0.0 10101764
19:00+23nw256229 0.0 1009356
22:00+17nnw12906 0.2 101013
11 august, thu
thu1101:00+16nnw009580 0.5 100911
04:00+15nnw11965 0.0 100911
07:00+16n12930 0.0 100975
10:00+22nne22674 0.0 1009595
13:00+23n337010 1.1 10091147
16:00+21n3680100 3.1 1010567
19:00+20nne366686 3.4 1011804
22:00+14n29780 0.0 1012245
12 august, fri
fri1201:00+11n25790 0.0 1013104
04:00+9nne28813 0.0 1014151
07:00+10n28746 0.0 1015210
10:00+16nne354975 0.0 1015711
13:00+19nne3438100 0.0 10141391
16:00+20n333415 0.0 10141520
19:00+19nne2449100 0.0 1013261
22:00+12ne237397 0.0 101454